Weather History for Holland Rock Automatic We, MB

Change the Weather History Date:

Tuesday, January 21, 2014

  Actual Average Record
Temperature  
Mean Temperature 44 °F -  
Max Temperature 52 °F - - ()
Min Temperature 37 °F - - ()
Degree Days  
Heating Degree Days 20    
Moisture  
Dew Point 37 °F    
Average Humidity 76    
Maximum Humidity 95    
Minimum Humidity 48    
Precipitation  
Precipitation 0.00 in - - ()
Sea Level Pressure  
Sea Level Pressure 30.11 in    
Wind  
Wind Speed 7 mph ()    
Max Wind Speed 21 mph    
Max Gust Speed 20 mph    
T = Trace of Precipitation, MM = Missing Value Source: Averaged Metar Reports

Daily Weather History Graph

Daily Weather History Graph

Search for Another Location

Airport:

Trip Planner

Search our weather history database for the weather conditions in past years. The results will help you decide how hot, cold, wet, or windy it might be!

Date:

Astronomy

Jan. 21, 2014 Rise Set
Actual Time 8:45 AM PST 5:00 PM PST
Civil Twilight 8:04 AM PST 5:41 PM PST
Nautical Twilight 7:20 AM PST 6:25 PM PST
Astronomical Twilight 6:38 AM PST 7:07 PM PST
Moon 11:40 PM PST (1/21) 10:23 AM PST (1/21)
Length of Visible Light 9h 36m
Length of Day
8h 15m
Waning Gibbous, 73% of the Moon is Illuminated
Jan 21
Waning Gibbous
Jan 23
Last Quarter
Jan 30
New
Feb 6
First Quarter
Feb 14
Full

Hourly Weather History & Observations

Time (PST) Temp. Windchill Dew Point Humidity Pressure Visibility Wind Dir Wind Speed Gust Speed Precip Events Conditions
12:00 AM 48.6 °F - 34.7 °F 59% 30.14 in - East 12.7 mph 19.6 mph N/A   Unknown
1:00 AM 48.2 °F - 37.0 °F 65% 30.14 in - ENE 11.5 mph 18.4 mph N/A   Unknown
2:00 AM 50.0 °F - 36.7 °F 60% 30.14 in - ENE 10.4 mph - N/A   Unknown
3:00 AM 52.3 °F - 32.9 °F 48% 30.11 in - ESE 16.1 mph - N/A   Unknown
4:00 AM 49 °F - 36 °F 49% 30.11 in - ESE 4.6 mph - -  
4:00 AM 49.3 °F - 35.8 °F 60% 30.11 in - ESE 4.6 mph - N/A   Unknown
5:00 AM 48.4 °F - 34.5 °F 59% 30.11 in - ENE 6.9 mph 18.4 mph N/A   Unknown
6:00 AM 37.9 °F - 36.0 °F 93% 30.10 in - SW 1.2 mph - N/A   Unknown
7:00 AM 37.6 °F - 36.0 °F 94% 30.09 in - SSW 1.2 mph - N/A   Unknown
8:00 AM 37.4 °F - 36.1 °F 95% 30.09 in - SW 1.2 mph - N/A   Unknown
9:00 AM 37.6 °F - 36.3 °F 95% 30.10 in - SSW 1.2 mph - N/A   Unknown
10:00 AM 38 °F - 37 °F 94% 30.11 in - South 2.3 mph - -  
10:00 AM 38.5 °F - 36.9 °F 94% 30.11 in - South 2.3 mph - N/A   Unknown
11:00 AM 38.8 °F - 37.2 °F 94% 30.11 in - SSE 1.2 mph - N/A   Unknown
12:00 PM 39.4 °F 37.2 °F 37.6 °F 93% 30.10 in - SSE 3.5 mph - N/A   Unknown
1:00 PM 40.5 °F - 37.8 °F 90% 30.08 in - SE 1.2 mph - N/A   Unknown
4:00 PM 50 °F - 36 °F 49% 30.02 in - SSE 17.3 mph - -  
10:00 PM 46 °F - 39 °F 69% 30.12 in - SE 20.7 mph - -  
10:00 PM 45.7 °F 37.8 °F 39.2 °F 78% 30.12 in - SE 20.7 mph - N/A   Unknown
11:00 PM 48.2 °F - 40.5 °F 75% 30.13 in - ESE 13.8 mph - N/A   Unknown